| time (UTC) | temp F | wind direction | speed knots | gust knots | rain 1hr in | rain 24hr in | rain mn in | humidity % | barometer mb |
| 20260904073518 | 63 | 0 | 9.6 | 14.8 | 0.02 | 0.15 | 0.14 | 98 | 1007.1 |
| 20260904072518 | 63 | 0 | 12.2 | 16.5 | 0.01 | 0.13 | 0.13 | 98 | 1007.4 |
| 20260904071518 | 63 | 0 | 8.7 | 13.0 | 0.01 | 0.13 | 0.12 | 98 | 1007.2 |
| 20260904070518 | 63 | 0 | 4.3 | 10.4 | 0.02 | 0.13 | 0.12 | 98 | 1007.4 |
| 20260904065518 | 63 | 0 | 5.2 | 11.3 | 0.02 | 0.13 | 0.12 | 97 | 1007.6 |
| 20260904064518 | 63 | 0 | 6.1 | 11.3 | 0.02 | 0.13 | 0.12 | 97 | 1007.6 |
| 20260904063518 | 62 | 0 | 3.5 | 8.7 | 0.02 | 0.13 | 0.12 | 97 | 1007.7 |
| 20260904062518 | 62 | 0 | 5.2 | 11.3 | 0.02 | 0.13 | 0.12 | 97 | 1008.0 |
| 20260904061518 | 62 | 0 | 6.1 | 13.9 | 0.07 | 0.12 | 0.11 | 97 | 1008.2 |
| 20260904060518 | 62 | 0 | 5.2 | 10.4 | 0.09 | 0.11 | 0.10 | 97 | 1008.4 |
| 20260904055538 | 62 | 0 | 7.0 | 12.2 | 0.10 | 0.11 | 0.10 | 97 | 1008.4 |
| 20260904054518 | 62 | 0 | 6.1 | 14.8 | 0.10 | 0.11 | 0.10 | 96 | 1008.5 |
| 20260904053518 | 61 | 0 | 4.3 | 7.8 | 0.10 | 0.11 | 0.10 | 96 | 1008.8 |
| 20260904052518 | 61 | 225 | 0.9 | 2.6 | 0.09 | 0.10 | 0.09 | 96 | 1008.8 |
| 20260904051518 | 61 | 203 | 1.7 | 5.2 | 0.04 | 0.05 | 0.04 | 95 | 1009.0 |
| 20260904050518 | 61 | 203 | 1.7 | 5.2 | 0.01 | 0.02 | 0.01 | 94 | 1009.2 |
| 20260904045518 | 61 | 180 | 1.7 | 5.2 | 0.00 | 0.01 | 0.00 | 93 | 1009.3 |
| 20260904044518 | 61 | 180 | 1.7 | 5.2 | 0.00 | 0.01 | 0.00 | 93 | 1009.5 |
| 20260904043518 | 61 | 203 | 2.6 | 5.2 | 0.00 | 0.01 | 0.00 | 93 | 1009.9 |
| 20260904042518 | 61 | 203 | 1.7 | 5.2 | 0.00 | 0.01 | 0.00 | 93 | 1010.1 |
| 20260904041518 | 61 | 0 | 1.7 | 5.2 | 0.00 | 0.01 | 0.00 | 93 | 1010.3 |
| 20260904040518 | 61 | 0 | 3.5 | 7.8 | 0.00 | 0.01 | 0.00 | 92 | 1010.6 |
| 20260904035518 | 62 | 0 | 3.5 | 7.8 | 0.00 | 0.02 | 0.00 | 92 | 1010.6 |
| 20260904034538 | 62 | 0 | 3.5 | 7.0 | 0.00 | 0.02 | 0.00 | 92 | 1010.7 |
| 20260904033517 | 62 | 0 | 2.6 | 7.0 | 0.00 | 0.02 | 0.00 | 92 | 1010.7 |
| 20260904032518 | 62 | 0 | 4.3 | 9.6 | 0.00 | 0.02 | 0.00 | 91 | 1011.0 |
| 20260904031518 | 62 | 0 | 5.2 | 8.7 | 0.00 | 0.02 | 0.00 | 91 | 1011.1 |
| 20260904030518 | 62 | 0 | 4.3 | 8.7 | 0.00 | 0.02 | 0.00 | 91 | 1011.3 |
| 20260904025517 | 62 | 0 | 5.2 | 9.6 | 0.00 | 0.02 | 0.00 | 90 | 1011.4 |
| 20260904024517 | 62 | 0 | 5.2 | 10.4 | 0.00 | 0.02 | 0.00 | 90 | 1011.6 |
| 20260904023518 | 62 | 0 | 4.3 | 10.4 | 0.00 | 0.02 | 0.00 | 90 | 1011.5 |
| 20260904022518 | 62 | 0 | 5.2 | 7.8 | 0.00 | 0.02 | 0.00 | 90 | 1011.5 |
| 20260904021518 | 62 | 0 | 5.2 | 8.7 | 0.00 | 0.02 | 0.00 | 90 | 1011.7 |
| 20260904020518 | 62 | 0 | 7.8 | 11.3 | 0.00 | 0.02 | 0.00 | 90 | 1011.9 |
| 20260904015517 | 62 | 0 | 7.8 | 10.4 | 0.00 | 0.02 | 0.00 | 91 | 1011.8 |
| 20260904014518 | 62 | 0 | 7.8 | 10.4 | 0.00 | 0.02 | 0.00 | 91 | 1011.9 |
| 20260904013538 | 62 | 0 | 7.8 | 10.4 | 0.00 | 0.02 | 0.00 | 91 | 1012.1 |
| 20260904012517 | 62 | 0 | 7.8 | 11.3 | 0.00 | 0.02 | 0.00 | 91 | 1012.1 |
| 20260904011518 | 62 | 0 | 8.7 | 13.9 | 0.00 | 0.02 | 0.00 | 91 | 1012.3 |
| 20260904010518 | 62 | 0 | 8.7 | 12.2 | 0.00 | 0.02 | 0.00 | 91 | 1012.2 |
| 20260904005537 | 62 | 0 | 9.6 | 13.9 | 0.00 | 0.02 | 0.00 | 91 | 1012.4 |
| 20260904004517 | 62 | 0 | 11.3 | 16.5 | 0.00 | 0.02 | 0.00 | 91 | 1012.5 |
| 20260904003518 | 62 | 0 | 10.4 | 16.5 | 0.00 | 0.02 | 0.00 | 91 | 1012.5 |
| 20260904002517 | 62 | 0 | 10.4 | 14.8 | 0.00 | 0.02 | 0.00 | 91 | 1012.4 |
| 20260904001518 | 62 | 0 | 10.4 | 14.8 | 0.00 | 0.02 | 0.00 | 91 | 1012.5 |
| 20260904000537 | 62 | 0 | 9.6 | 12.2 | 0.00 | 0.02 | 0.00 | 91 | 1012.5 |
| 20260903235517 | 62 | 0 | 9.6 | 13.0 | 0.00 | 0.02 | 0.00 | 91 | 1012.5 |
| 20260903234517 | 62 | 0 | 8.7 | 11.3 | 0.00 | 0.02 | 0.00 | 90 | 1012.6 |
| 20260903233517 | 63 | 0 | 10.4 | 13.0 | 0.00 | 0.02 | 0.00 | 90 | 1012.6 |
| 20260903232537 | 63 | 0 | 9.6 | 12.2 | 0.00 | 0.02 | 0.00 | 90 | 1012.7 |
| 20260903231557 | 63 | 0 | 10.4 | 13.9 | 0.00 | 0.02 | 0.00 | 91 | 1012.8 |
| 20260903230517 | 62 | 0 | 9.6 | 13.9 | 0.00 | 0.02 | 0.00 | 91 | 1012.9 |
| 20260903225537 | 62 | 0 | 9.6 | 12.2 | 0.00 | 0.02 | 0.00 | 91 | 1012.9 |
| 20260903224518 | 62 | 0 | 7.8 | 9.6 | 0.00 | 0.02 | 0.00 | 91 | 1012.8 |
| 20260903223518 | 62 | 0 | 8.7 | 12.2 | 0.00 | 0.02 | 0.00 | 91 | 1012.9 |
| 20260903222517 | 63 | 0 | 8.7 | 12.2 | 0.00 | 0.02 | 0.00 | 91 | 1013.0 |
| 20260903221517 | 63 | 0 | 8.7 | 12.2 | 0.00 | 0.02 | 0.00 | 91 | 1012.9 |
| 20260903220517 | 63 | 0 | 8.7 | 13.9 | 0.00 | 0.02 | 0.00 | 91 | 1013.1 |
| 20260903215517 | 63 | 0 | 11.3 | 14.8 | 0.00 | 0.02 | 0.02 | 91 | 1013.1 |
| 20260903214517 | 63 | 0 | 9.6 | 13.9 | 0.00 | 0.02 | 0.02 | 92 | 1013.3 |
| 20260903213537 | 62 | 0 | 7.8 | 12.2 | 0.00 | 0.02 | 0.02 | 92 | 1013.2 |
| 20260903212517 | 63 | 0 | 3.5 | 5.2 | 0.00 | 0.02 | 0.02 | 92 | 1013.1 |
| 20260903211537 | 62 | 0 | 6.1 | 8.7 | 0.00 | 0.02 | 0.02 | 91 | 1013.2 |
| 20260903210537 | 63 | 0 | 5.2 | 7.8 | 0.00 | 0.02 | 0.02 | 91 | 1013.1 |
| 20260903205517 | 63 | 0 | 7.0 | 9.6 | 0.00 | 0.02 | 0.02 | 91 | 1013.2 |
| 20260903204537 | 63 | 0 | 7.0 | 9.6 | 0.00 | 0.02 | 0.02 | 90 | 1013.2 |
| 20260903203517 | 63 | 0 | 8.7 | 10.4 | 0.00 | 0.02 | 0.02 | 90 | 1013.1 |
| 20260903202517 | 63 | 0 | 10.4 | 13.9 | 0.00 | 0.02 | 0.02 | 90 | 1013.0 |
| 20260903201557 | 63 | 0 | 12.2 | 18.2 | 0.00 | 0.02 | 0.02 | 91 | 1013.0 |
| 20260903200517 | 63 | 0 | 13.0 | 17.4 | 0.00 | 0.02 | 0.02 | 92 | 1012.9 |
| 20260903195537 | 63 | 0 | 7.8 | 9.6 | 0.00 | 0.02 | 0.02 | 92 | 1013.0 |
| 20260903194517 | 63 | 0 | 5.2 | 7.8 | 0.00 | 0.02 | 0.02 | 91 | 1013.0 |
| 20260903193517 | 64 | 0 | 6.1 | 8.7 | 0.00 | 0.02 | 0.02 | 90 | 1013.0 |
| 20260903192517 | 64 | 0 | 7.8 | 9.6 | 0.00 | 0.02 | 0.02 | 90 | 1013.1 |
| 20260903191517 | 65 | 0 | 11.3 | 14.8 | 0.00 | 0.02 | 0.02 | 89 | 1013.1 |
| 20260903190517 | 64 | 0 | 11.3 | 16.5 | 0.00 | 0.02 | 0.02 | 90 | 1013.1 |
| 20260903185517 | 64 | 0 | 8.7 | 13.0 | 0.00 | 0.02 | 0.02 | 90 | 1012.9 |
| 20260903184517 | 64 | 0 | 5.2 | 7.8 | 0.00 | 0.02 | 0.02 | 90 | 1013.0 |
| 20260903183517 | 65 | 0 | 7.0 | 9.6 | 0.00 | 0.02 | 0.02 | 90 | 1012.9 |
| 20260903182517 | 64 | 0 | 8.7 | 12.2 | 0.00 | 0.02 | 0.02 | 91 | 1012.6 |
| 20260903181517 | 65 | 0 | 7.0 | 12.2 | 0.00 | 0.02 | 0.02 | 91 | 1012.7 |
| 20260903180537 | 65 | 0 | 7.0 | 9.6 | 0.00 | 0.02 | 0.02 | 91 | 1012.6 |
| 20260903175517 | 65 | 0 | 7.8 | 11.3 | 0.00 | 0.02 | 0.02 | 91 | 1012.5 |
| 20260903174516 | 66 | 0 | 8.7 | 12.2 | 0.00 | 0.02 | 0.02 | 91 | 1012.4 |
| 20260903173517 | 66 | 0 | 9.6 | 13.9 | 0.00 | 0.02 | 0.02 | 91 | 1012.4 |
| 20260903172516 | 66 | 0 | 4.3 | 11.3 | 0.00 | 0.02 | 0.02 | 91 | 1012.4 |
| 20260903171516 | 66 | 0 | 7.0 | 11.3 | 0.00 | 0.02 | 0.02 | 90 | 1012.4 |
| 20260903170517 | 67 | 0 | 7.8 | 11.3 | 0.00 | 0.02 | 0.02 | 89 | 1012.4 |
| 20260903165536 | 67 | 0 | 9.6 | 12.2 | 0.00 | 0.02 | 0.02 | 89 | 1012.1 |
| 20260903164516 | 68 | 0 | 7.0 | 12.2 | 0.00 | 0.02 | 0.02 | 88 | 1012.2 |
| 20260903163516 | 68 | 0 | 7.8 | 14.8 | 0.00 | 0.02 | 0.02 | 89 | 1012.2 |
| 20260903162517 | 68 | 0 | 9.6 | 13.0 | 0.00 | 0.02 | 0.02 | 88 | 1012.3 |
| 20260903161516 | 68 | 0 | 8.7 | 13.9 | 0.00 | 0.02 | 0.02 | 87 | 1012.4 |
| 20260903160517 | 68 | 0 | 11.3 | 17.4 | 0.00 | 0.02 | 0.02 | 88 | 1012.2 |
| 20260903155516 | 68 | 0 | 8.7 | 13.9 | 0.00 | 0.02 | 0.02 | 87 | 1012.2 |
| 20260903154516 | 68 | 0 | 8.7 | 16.5 | 0.00 | 0.02 | 0.02 | 87 | 1012.2 |
| 20260903153518 | 69 | 0 | 7.8 | 14.8 | 0.00 | 0.02 | 0.02 | 87 | 1012.1 |
| 20260903152516 | 69 | 0 | 10.4 | 17.4 | 0.00 | 0.02 | 0.02 | 86 | 1012.1 |
| 20260903151518 | 69 | 0 | 9.6 | 15.6 | 0.00 | 0.02 | 0.02 | 88 | 1012.2 |
| 20260903150518 | 68 | 0 | 10.4 | 15.6 | 0.00 | 0.02 | 0.02 | 88 | 1012.3 |
| 20260903145559 | 68 | 0 | 10.4 | 15.6 | 0.00 | 0.02 | 0.02 | 89 | 1012.5 |
| 20260903144518 | 67 | 0 | 9.6 | 13.9 | 0.00 | 0.02 | 0.02 | 89 | 1012.5 |
| 20260903143518 | 67 | 0 | 8.7 | 15.6 | 0.00 | 0.02 | 0.02 | 89 | 1012.6 |
| 20260903142518 | 68 | 0 | 8.7 | 13.9 | 0.00 | 0.02 | 0.02 | 91 | 1012.5 |
| 20260903141518 | 66 | 0 | 10.4 | 15.6 | 0.00 | 0.02 | 0.02 | 90 | 1012.6 |
| 20260903140518 | 66 | 0 | 10.4 | 14.8 | 0.00 | 0.02 | 0.02 | 90 | 1012.6 |
| 20260903135518 | 66 | 0 | 11.3 | 17.4 | 0.00 | 0.02 | 0.02 | 89 | 1012.7 |
| 20260903134538 | 66 | 0 | 8.7 | 14.8 | 0.01 | 0.02 | 0.02 | 89 | 1012.7 |
| 20260903133518 | 66 | 0 | 7.8 | 13.9 | 0.01 | 0.02 | 0.02 | 89 | 1012.6 |
| 20260903132518 | 65 | 0 | 9.6 | 15.6 | 0.01 | 0.02 | 0.02 | 90 | 1012.7 |
| 20260903131518 | 65 | 0 | 7.8 | 13.9 | 0.01 | 0.02 | 0.02 | 91 | 1012.7 |
| 20260903130518 | 65 | 0 | 7.0 | 11.3 | 0.01 | 0.02 | 0.02 | 92 | 1012.6 |
| 20260903124518 | 65 | 0 | 7.8 | 14.8 | 0.00 | 0.02 | 0.02 | 94 | 1012.8 |
| 20260903123518 | 64 | 0 | 7.0 | 11.3 | 0.00 | 0.02 | 0.02 | 94 | 1012.7 |
| 20260903122518 | 64 | 0 | 7.0 | 12.2 | 0.00 | 0.02 | 0.02 | 94 | 1012.9 |
| 20260903121518 | 64 | 0 | 10.4 | 17.4 | 0.00 | 0.02 | 0.02 | 92 | 1012.9 |
| 20260903120518 | 65 | 0 | 7.8 | 13.0 | 0.00 | 0.02 | 0.02 | 91 | 1012.9 |
| 20260903115518 | 65 | 0 | 7.8 | 13.9 | 0.00 | 0.02 | 0.02 | 88 | 1012.7 |
| 20260903114518 | 66 | 0 | 10.4 | 15.6 | 0.00 | 0.02 | 0.02 | 85 | 1012.8 |
| 20260903113520 | 67 | 0 | 9.6 | 17.4 | 0.00 | 0.02 | 0.02 | 84 | 1012.7 |
| 20260903112538 | 67 | 0 | 10.4 | 17.4 | 0.00 | 0.02 | 0.02 | 84 | 1012.8 |
| 20260903111518 | 67 | 0 | 9.6 | 15.6 | 0.00 | 0.02 | 0.02 | 85 | 1012.9 |
| 20260903110518 | 67 | 0 | 9.6 | 18.2 | 0.00 | 0.02 | 0.02 | 85 | 1013.0 |
| 20260903105538 | 66 | 0 | 13.0 | 20.0 | 0.00 | 0.02 | 0.02 | 84 | 1013.1 |
| 20260903104518 | 67 | 0 | 13.9 | 20.0 | 0.00 | 0.02 | 0.02 | 84 | 1013.3 |
| 20260903103518 | 66 | 0 | 10.4 | 16.5 | 0.00 | 0.02 | 0.02 | 84 | 1013.1 |
| 20260903102517 | 67 | 0 | 9.6 | 16.5 | 0.00 | 0.02 | 0.02 | 82 | 1013.1 |
| 20260903101518 | 66 | 0 | 9.6 | 16.5 | 0.00 | 0.02 | 0.02 | 83 | 1013.2 |
| 20260903100538 | 66 | 0 | 8.7 | 16.5 | 0.00 | 0.02 | 0.02 | 84 | 1013.4 |
| 20260903095517 | 66 | 0 | 7.0 | 13.0 | 0.00 | 0.02 | 0.02 | 84 | 1013.5 |
| 20260903094518 | 66 | 0 | 8.7 | 15.6 | 0.00 | 0.02 | 0.02 | 84 | 1013.5 |
| 20260903093538 | 66 | 0 | 6.1 | 13.0 | 0.00 | 0.02 | 0.02 | 84 | 1013.5 |
| 20260903092517 | 66 | 0 | 6.1 | 13.9 | 0.00 | 0.02 | 0.02 | 83 | 1013.5 |
| 20260903091518 | 66 | 0 | 7.8 | 13.9 | 0.00 | 0.02 | 0.02 | 83 | 1013.6 |
| 20260903090517 | 67 | 0 | 6.1 | 11.3 | 0.00 | 0.02 | 0.02 | 84 | 1013.9 |
| 20260903085517 | 65 | 0 | 7.0 | 17.4 | 0.00 | 0.02 | 0.02 | 85 | 1013.8 |
| 20260903084518 | 65 | 0 | 6.1 | 13.0 | 0.00 | 0.02 | 0.02 | 86 | 1014.1 |
| 20260903083517 | 64 | 0 | 8.7 | 15.6 | 0.00 | 0.02 | 0.02 | 86 | 1014.0 |
| 20260903082518 | 63 | 0 | 5.2 | 10.4 | 0.00 | 0.02 | 0.02 | 88 | 1014.0 |
| 20260903081558 | 62 | 0 | 5.2 | 10.4 | 0.00 | 0.02 | 0.02 | 89 | 1014.1 |
| 20260903080518 | 62 | 0 | 6.1 | 10.4 | 0.00 | 0.02 | 0.02 | 90 | 1014.1 |
| 20260903075518 | 62 | 0 | 6.1 | 13.9 | 0.00 | 0.02 | 0.02 | 89 | 1014.2 |
| 20260903074518 | 62 | 0 | 6.1 | 12.2 | 0.00 | 0.02 | 0.02 | 90 | 1014.3 |